Weather History for Big Piney, WY

Change the Weather History Date:

Thursday, February 14, 2013

  Actual Average Record
Temperature  
Mean Temperature 18 °F 14 °F  
Max Temperature 30 °F 28 °F 49 °F (1996)
Min Temperature 5 °F 0 °F -24 °F (1993)
Degree Days  
Heating Degree Days 47 51  
Month to date heating degree days 687 736  
Since 1 July heating degree days 6161 6849  
Cooling Degree Days 0 0  
Month to date cooling degree days 0 0  
Year to date cooling degree days 0 0  
Moisture  
Dew Point 10 °F    
Average Humidity 70    
Maximum Humidity 91    
Minimum Humidity 49    
Precipitation  
Precipitation 0.00 in 0.02 in 0.32 in (1995)
Month to date precipitation 0.09 0.17  
Year to date precipitation 0.16 0.48  
Sea Level Pressure  
Sea Level Pressure 30.29 in    
Wind  
Wind Speed 10 mph (NNW)    
Max Wind Speed 21 mph    
Max Gust Speed 25 mph    
Visibility 10 miles    
Events      
T = Trace of Precipitation, MM = Missing Value Source: NWS Daily Summary

Daily Weather History Graph

Daily Weather History Graph

Search for Another Location

Airport:

Trip Planner

Search our weather history database for the weather conditions in past years. The results will help you decide how hot, cold, wet, or windy it might be!

Date:

Astronomy

Feb. 14, 2013 Rise Set
Actual Time 7:18 AM MST 5:51 PM MST
Civil Twilight 6:49 AM MST 6:20 PM MST
Nautical Twilight 6:16 AM MST 6:53 PM MST
Astronomical Twilight 5:43 AM MST 7:26 PM MST
Moon 9:14 AM MST (2/14) 11:06 PM MST (2/14)
Length of Visible Light 11h 31m
Length of Day
10h 33m
Waxing Crescent, 22% of the Moon is Illuminated
Feb 14
Waxing Crescent
Feb 17
First Quarter
Feb 25
Full
Mar 4
Last Quarter
Mar 11
New

Hourly Weather History & Observations

Time (MST) Temp. Windchill Dew Point Humidity Pressure Visibility Wind Dir Wind Speed Gust Speed Precip Events Conditions
12:53 AM 9.0 °F - 7.0 °F 92% 30.17 in 10.0 mi Calm Calm - N/A   Clear
1:53 AM 7.0 °F - 5.0 °F 92% 30.19 in 10.0 mi Calm Calm - N/A   Partly Cloudy
2:53 AM 8.1 °F -6.2 °F 5.0 °F 87% 30.18 in 10.0 mi NNW 10.4 mph - N/A   Scattered Clouds
3:53 AM 12.9 °F 6.9 °F 9.0 °F 84% 30.16 in 10.0 mi ESE 3.5 mph - N/A   Clear
4:53 AM 16.0 °F 4.4 °F 10.9 °F 81% 30.17 in 10.0 mi NNW 9.2 mph - N/A   Partly Cloudy
5:53 AM 10.9 °F 1.4 °F 6.1 °F 81% 30.25 in 10.0 mi NW 5.8 mph - N/A   Clear
6:53 AM 17.1 °F 3.0 °F 10.0 °F 74% 30.23 in 10.0 mi North 13.8 mph - N/A   Clear
7:53 AM 17.1 °F 3.0 °F 8.1 °F 68% 30.28 in 10.0 mi NNW 13.8 mph - N/A   Clear
8:53 AM 21.0 °F 11.4 °F 10.0 °F 63% 30.26 in 10.0 mi NNW 8.1 mph - N/A   Clear
9:53 AM 25.0 °F 14.2 °F 12.9 °F 60% 30.32 in 10.0 mi NNW 11.5 mph - N/A   Clear
10:53 AM 27.0 °F 18.7 °F 14.0 °F 58% 30.31 in 10.0 mi North 8.1 mph - N/A   Clear
11:53 AM 28.0 °F 17.0 °F 14.0 °F 56% 30.31 in 10.0 mi North 13.8 mph 18.4 mph N/A   Clear
12:53 PM 28.9 °F 17.3 °F 15.1 °F 56% 30.32 in 10.0 mi North 16.1 mph - N/A   Clear
1:53 PM 30.0 °F 19.1 °F 14.0 °F 51% 30.32 in 10.0 mi NNW 15.0 mph 25.3 mph N/A   Clear
2:53 PM 28.9 °F 18.2 °F 14.0 °F 54% 30.33 in 10.0 mi NNW 13.8 mph - N/A   Clear
3:53 PM 28.9 °F 19.8 °F 14.0 °F 54% 30.32 in 10.0 mi NNW 10.4 mph - N/A   Clear
4:53 PM 26.1 °F 16.2 °F 12.9 °F 58% 30.32 in 10.0 mi NNW 10.4 mph - N/A   Clear
5:53 PM 21.0 °F 13.4 °F 10.0 °F 63% 30.36 in 10.0 mi NNW 5.8 mph - N/A   Clear
6:53 PM 21.0 °F 11.4 °F 10.0 °F 63% 30.35 in 10.0 mi North 8.1 mph - N/A   Clear
7:53 PM 17.1 °F 3.6 °F 9.0 °F 71% 30.38 in 10.0 mi North 12.7 mph - N/A   Clear
8:53 PM 19.0 °F 5.6 °F 10.0 °F 68% 30.35 in 10.0 mi North 13.8 mph 24.2 mph N/A   Clear
9:53 PM 15.1 °F 1.8 °F 8.1 °F 74% 30.36 in 10.0 mi North 11.5 mph - N/A   Clear
10:53 PM 12.9 °F 3.8 °F 7.0 °F 77% 30.35 in 10.0 mi NNW 5.8 mph - N/A   Clear
11:53 PM 19.9 °F 5.7 °F 12.0 °F 71% 30.31 in 10.0 mi North 16.1 mph - N/A   Clear